Regional Weather Roundup
Issued by NWS

Home | Current Version | Previous Version | Graphics & Text | Print | Product List | Glossary On
Versions: 1 2 3 4 5 6 7 8 9 10 11 12 13 14 15 16 17 18 19 20 21 22 23 24 25 26 27 28 29 30 31 32 33 34 35 36 37 38 39 40 41 42 43 44 45 46 47 48 49 50
000
ASUS43 KBIS 221531
RWRND
NORTH DAKOTA REGIONAL WEATHER ROUNDUP
NATIONAL WEATHER SERVICE EASTERN NORTH DAKOTA/GRAND FORKS ND
1000 AM CDT THU JUN 22 2017

  NOTE: "FAIR" INDICATES FEW OR NO CLOUDS BELOW 12,000 FEET WITH NO
  SIGNIFICANT WEATHER AND/OR OBSTRUCTIONS TO VISIBILITY.

NDZ001>003-009>011-017-221600-
...NORTHWEST NORTH DAKOTA...

CITY           SKY/WX    TMP DP  RH WIND       PRES   REMARKS
WILLISTON      FAIR      64  43  46 W16       29.87R
MINOT          FAIR      66  43  43 W20G26    29.78R
MINOT AFB      FAIR      65  43  46 NW21G26   29.76R
$$

NDZ018>021-031>035-040>046-221600-
...SOUTHWEST NORTH DAKOTA...

CITY           SKY/WX    TMP DP  RH WIND       PRES   REMARKS
BISMARCK       CLOUDY    67  44  43 NW16G25   29.83S
DICKINSON      FAIR      64  41  42 NW20G25   29.87S
GARRISON         N/A     64  44  48 NW16G25   29.82R
HETTINGER      PTSUNNY   67  39  35 NW20G28   29.92R
$$

NDZ004>008-012>016-024-026-027-054-221600-
...NORTHEAST NORTH DAKOTA...

CITY           SKY/WX    TMP DP  RH WIND       PRES   REMARKS
GRAND FORKS    PTSUNNY   64  52  64 SW8       29.71F
GRAND FORKS AF PTSUNNY   63  51  65 SW7       29.72S
DEVILS LAKE    FAIR      66  49  54 W17       29.74S
$$

NDZ022-023-025-028>030-036>039-047>053-221600-
...SOUTHEAST NORTH DAKOTA...

CITY           SKY/WX    TMP DP  RH WIND       PRES   REMARKS
JAMESTOWN      FAIR      65  47  52 NW13      29.77F
FARGO          FAIR      71  47  42 NW12      29.74S
WAHPETON       FAIR      63  52  67 NW8       29.74S
$$




USA.gov is the U.S. government's official web portal to all federal, state and local government web resources and services.